Location: Casteau
(50.5142°N, 4.0161°E)
Time: 22:23:51
(UTC+00:00)

S-56A Canister/Altair - Pass Details

Date: 04 August 2021
Orbit: 632 x 2500 km, 38.9° (Epoch: 19 September)

Event Time Altitude Azimuth Distance (km) Brightness Sun altitude
Rises 13:26:32 0° 223° (SW) 5,143 12.4 51.4°
Reaches altitude 10° 13:29:52 10° 216° (SW) 4,382 12.3 51.1°
Maximum altitude 13:41:07 40° 153° (SSE) 3,147 11.3 49.9°
Drops below altitude 10° 13:54:24 10° 92° (E) 5,165 11.6 48.3°
Sets 13:58:43 0° 86° (E) 6,131 11.8 47.8°
